LiveATC.Net - Listen to live air traffic control over the Internet!


ICAO: KHYI  IATA: HYI   Airport: San Marcos Municipal Airport
City: Austin   State/Province: Texas
Country: United States   Continent: North America
KHYI METAR Weather: KHYI 152256Z 16004KT 10SM FEW055 34/22 A2988 RMK AO2 SLP110 T03390222
KHYI Flight Activity (FlightAware)
KHYI Airport Info   (iFlightPlanner)
KHYI VFR Sectional Chart   (iFlightPlanner) 
KHYI IFR Low Chart   (iFlightPlanner) 

KHYI Gnd/Twr/Misc
Feed Status: UP   Listeners: 0
Listen in your browser - HTML5 player (in browser, HTML5)
Click here to listen with your own player (launches your MP3 player)
KHYI Gnd/Twr/Misc Audio Archives
FacilityFrequency
Redbird FBO ASRI130.850
San Marcos Ground120.125
San Marcos Tower126.825

NOTICE

Unauthorized use prohibited. See LiveATC.net Terms of Service


Find LiveATC Audio Streams


Airport/ARTCC Code

Frequency Search
(e.g., 124.400, 128.75)
Site-wide search
 


Browse LiveATC Feeds
Top 50 LiveATC Feeds
LiveATC Feed Map
Bad Weather Areas

LiveATC FAQ
Offer LiveATC feed
Contact LiveATC.net
Press Inquiries

LiveATC on iPhone
LiveATC on Android

Windows Phone
Windows 8/10

LiveATC Mobile
(Mobile browser)

ATC Audio Archives
Interesting Recordings

LiveATC Forums


Home Page
About LiveATC.net
Make a Donation
Terms of Use
Privacy Policy

Canadian Air Freqs

AIRMETs/SIGMETs

FAA Airport Status
Nat'l Airspace Status
Arrival Demand Charts


Server Software By:
Icecast.org
Liquidsoap